TimePDT,TemperatureF,Dew PointF,Humidity,Sea Level PressureIn,VisibilityMPH,Wind Direction,Wind SpeedMPH,Gust SpeedMPH,PrecipitationIn,Events,Conditions,WindDirDegrees,DateUTC
12:52 AM,82.0,37.9,21,29.65,10.0,NNW,12.7,-,N/A,,Clear,340,2013-05-22 07:52:00
1:52 AM,81.0,37.9,21,29.63,10.0,NNW,12.7,-,N/A,,Clear,330,2013-05-22 08:52:00
2:52 AM,79.0,37.0,22,29.63,10.0,NNW,10.4,-,N/A,,Clear,330,2013-05-22 09:52:00
3:52 AM,75.9,37.0,24,29.62,10.0,Variable,3.5,-,N/A,,Clear,0,2013-05-22 10:52:00
4:52 AM,73.0,37.9,28,29.65,10.0,Calm,Calm,-,N/A,,Clear,0,2013-05-22 11:52:00
5:52 AM,68.0,39.0,35,29.63,10.0,Calm,Calm,-,N/A,,Clear,0,2013-05-22 12:52:00
6:52 AM,77.0,39.0,25,29.68,10.0,Variable,3.5,-,N/A,,Clear,0,2013-05-22 13:52:00
7:52 AM,81.0,39.0,22,29.68,10.0,SE,3.5,-,N/A,,Clear,130,2013-05-22 14:52:00
8:52 AM,84.9,37.9,19,29.66,3.0,ESE,6.9,-,N/A,,Haze,110,2013-05-22 15:52:00
9:52 AM,88.0,34.0,15,29.65,10.0,Calm,Calm,-,N/A,,Clear,0,2013-05-22 16:52:00
10:52 AM,90.0,36.0,15,29.65,10.0,Variable,3.5,-,N/A,,Clear,0,2013-05-22 17:52:00
11:52 AM,93.9,33.1,12,29.63,10.0,Calm,Calm,-,N/A,,Clear,0,2013-05-22 18:52:00
12:52 PM,97.0,30.9,10,29.60,10.0,SE,6.9,-,N/A,,Clear,140,2013-05-22 19:52:00
1:52 PM,99.0,28.9,8,29.58,10.0,South,5.8,-,N/A,,Clear,170,2013-05-22 20:52:00
2:52 PM,99.0,24.1,7,29.56,10.0,WNW,4.6,-,N/A,,Clear,290,2013-05-22 21:52:00
3:52 PM,100.9,30.0,8,29.54,10.0,WNW,12.7,-,N/A,,Clear,300,2013-05-22 22:52:00
4:52 PM,99.0,8.1,4,29.53,10.0,NW,23.0,32.2,N/A,,Clear,310,2013-05-22 23:52:00
5:52 PM,95.0,1.9,4,29.54,10.0,WNW,20.7,31.1,N/A,,Clear,300,2013-05-23 00:52:00
6:52 PM,91.9,5.0,4,29.55,10.0,WNW,16.1,25.3,N/A,,Clear,290,2013-05-23 01:52:00
7:52 PM,86.0,39.0,19,29.56,10.0,NW,17.3,27.6,N/A,,Clear,320,2013-05-23 02:52:00
8:52 PM,82.0,41.0,23,29.57,8.0,NW,24.2,35.7,N/A,,Clear,320,2013-05-23 03:52:00
9:52 PM,78.1,43.0,29,29.62,10.0,West,12.7,26.5,N/A,,Clear,280,2013-05-23 04:52:00
10:52 PM,75.0,46.0,36,29.62,10.0,North,15.0,23.0,N/A,,Clear,350,2013-05-23 05:52:00
11:52 PM,72.0,46.9,41,29.64,10.0,NNW,8.1,-,N/A,,Clear,340,2013-05-23 06:52:00